GAF11A ETNW-EKKA

Flight info

Callsign GAF11A
Flight time N/A
Altitude 30000
Route NIE N850 ELSOB
Aircraft A400/H-SDE2E3FGHIJ4J5M1RWXY/LB1D1

Departure

Time 2026-05-04 23:08
Airport Wunstorf Air Base (ETNW)

Arrival

Time N/A
Airport Midtjyllands Airport / Air Base Karup (EKKA)
Time Latitude Longitude Altitude Speed Heading
2026-05-04 22:47 52.46090 9.42659 201 ft 0 kts 169°
2026-05-04 23:03 52.46079 9.42663 195 ft 4 kts 169°
2026-05-04 23:03 52.46041 9.42682 206 ft 5 kts 151°
2026-05-04 23:03 52.46033 9.42710 201 ft 4 kts 102°
2026-05-04 23:04 52.46039 9.42818 198 ft 14 kts 79°
2026-05-04 23:04 52.46051 9.43002 197 ft 16 kts 96°
2026-05-04 23:04 52.46000 9.43034 201 ft 10 kts 201°
2026-05-04 23:04 52.45966 9.43058 201 ft 4 kts 112°
2026-05-04 23:05 52.45972 9.43135 198 ft 13 kts 82°
2026-05-04 23:05 52.45989 9.43327 203 ft 11 kts 82°
2026-05-04 23:05 52.45996 9.43408 198 ft 14 kts 82°
2026-05-04 23:05 52.46012 9.43603 191 ft 14 kts 83°
2026-05-04 23:06 52.46031 9.43814 202 ft 14 kts 77°
2026-05-04 23:06 52.46039 9.43988 199 ft 3 kts 126°
2026-05-04 23:06 52.45985 9.44012 201 ft 14 kts 171°
2026-05-04 23:06 52.45875 9.44039 201 ft 5 kts 175°
2026-05-04 23:07 52.45847 9.43978 192 ft 2 kts 264°
2026-05-04 23:07 52.45846 9.43971 194 ft 6 kts 263°
2026-05-04 23:07 52.45816 9.43628 203 ft 88 kts 261°
2026-05-04 23:07 52.45663 9.42081 602 ft 158 kts 260°
2026-05-04 23:08 52.45378 9.39721 2232 ft 166 kts 252°
2026-05-04 23:08 52.45131 9.38426 2794 ft 187 kts 250°
2026-05-04 23:08 52.44682 9.36283 3573 ft 208 kts 250°
2026-05-04 23:08 52.44211 9.34002 4689 ft 213 kts 250°
2026-05-04 23:09 52.43746 9.31677 5974 ft 218 kts 250°
2026-05-04 23:09 52.43336 9.29253 7156 ft 225 kts 259°
2026-05-04 23:09 52.43455 9.26677 8339 ft 234 kts 288°
2026-05-04 23:09 52.44397 9.24538 9541 ft 242 kts 321°
2026-05-04 23:10 52.45985 9.23564 10612 ft 256 kts 355°
2026-05-04 23:10 52.47816 9.24162 11344 ft 284 kts 23°
2026-05-04 23:10 52.49627 9.25687 12317 ft 299 kts 29°
2026-05-04 23:10 52.51473 9.27391 13415 ft 309 kts 29°
2026-05-04 23:11 52.53373 9.29123 14445 ft 317 kts 29°
2026-05-04 23:11 52.55330 9.30869 15484 ft 323 kts 28°
2026-05-04 23:11 52.57336 9.32632 16527 ft 330 kts 28°
2026-05-04 23:11 52.59385 9.34419 17611 ft 337 kts 27°
2026-05-04 23:12 52.61493 9.36191 18654 ft 344 kts 24°
2026-05-04 23:12 52.63779 9.37440 19644 ft 349 kts 13°
2026-05-04 23:12 52.66196 9.38257 20464 ft 361 kts
2026-05-04 23:12 52.68721 9.38846 21233 ft 371 kts